DMSP 5D-2 F13 DEB, 40463

Orbit data source: Space-Track

DMSP 5D-2 F13 DEB, 40463 is space debris in SSO originally from a launch on Fri, 24 Mar 1995 UTC launched from the Air Force Western Test Range (AFWTR). Debris objects in space refer to the collection of defunct objects orbiting the Earth. Examples of debris include non-operational satellites, rocket bodies, and fragments generated from explosions, collisions, or faulty payload assembly.

Loading next visibility...
Identifier
40463, 1995-015BF
Orbit
SSO
Country
Flag of USUS
Related business
Manufacturer
Unknown
Mission
Spacecraft
Bus & Motor
Unknown
Mass
Unknown
Launch date (UTC)
1995-03-24 (31 years ago)
Launch vehicle
Unknown
Launch site
Air Force Western Test Range (AFWTR)
Object type
Payload
Rocket body
Debris
Shape & HBR
Unknown shape, 0.1 m
Radar Cross Section
Small (<0.1 m²)

Expand to show TLE details & history
Last TLE update: 16 hours ago

TLE from 16 hours ago
0 DMSP 5D-2 F13 DEB
1 40463U 95015BF  26072.32412505  .00106965  00000-0  65990-2 0  9994
2 40463  98.6127 209.4874 0021311 255.1325 104.7540 15.09235254578644
Epoch: 2026-03-13T07:46Z
TLE epoch observation values (Epoch: 2026-03-13T07:46:44.404Z)
Latitude
-0.00004°
Longitude
-78.1589°
Altitude
545.358 km
Speed
7.587 km/s
True Right ascension
13h 57m 56s
True Declination
0° 00' 00"
Sunlit
Object was in full shadow at epoch
Visualization orbit readout
Latitude
Unknown
Longitude
Unknown
Altitude
Unknown
Speed
Unknown
Apparent Right ascension
Unknown
Apparent Declination
Unknown
Sunlit
N/A
Visualization observer readout
Local Sidereal Time
04:31:43
Azimuth
Unknown
Elevation
Unknown
Doppler factor
Unknown
Orbital elements
Apogee altitude
550.305 km
Perigee altitude
520.837 km
Semi-major axis
6,913.708 km
Eccentricity
0.00213
Inclination
98.6127°
RAAN
209.4874°
Arg. of periapsis
255.1325°
True anomaly
104.98999°
Mean anomaly
104.754°
Eccentric anomaly
104.87201°
Mean motion
3.77552 °/min
Orbital period
95.35 mins
BSTAR
0.006599
Loading maneuver chart data...
Computing Atmospheric mass density...

Documentation

Showing up to 5 results
|